Location: Molveno
(46.1500°N, 10.9667°E)
Time: 07:58:19
(UTC+00:00)

SeaSat 1 - Pass Details

Date: 05 July 2020
Orbit: 744 x 747 km, 108.0° (Epoch: 05 August)

Event Time Altitude Azimuth Distance (km) Brightness Sun altitude
Rises 23:43:30 0° 38° (NE) 3,200 6.7 -21.0°
Reaches altitude 10° 23:46:09 10° 52° (NE) 2,271 5.5 -21.0°
Maximum altitude 23:50:13 25° 107° (ESE) 1,464 3.8 -20.9°
Enters shadow 23:51:18 24° 128° (SE) 1,533 3.8 -20.8°
